Location: Chicoutimi
(48.4330°N, 71.0670°W)
Time: 22:25:26
(UTC-04:00)

ISS - Visible Passes

Search period start: 01 August 2014 00:00
Search period end: 11 August 2014 00:00
Orbit: 411 x 419 km, 51.6° (Epoch: 01 August)

Date Brightness Start Highest point End Pass type
(mag) Time Alt. Az. Time Alt. Az. Time Alt. Az.
01 Aug -2.3 01:22:53 47° NNE 01:22:53 47° NNE 01:25:54 10° ENE visible
01 Aug -2.8 02:56:18 10° WNW 02:59:38 61° NNE 03:02:59 10° E visible
01 Aug -2.7 04:33:08 10° WNW 04:36:17 38° SSW 04:39:26 10° SE visible
02 Aug -0.8 00:36:08 17° ENE 00:36:08 17° ENE 00:37:00 10° ENE visible
02 Aug -2.4 02:09:02 25° WNW 02:10:44 51° N 02:14:02 10° E visible
02 Aug -3.3 03:44:12 10° WNW 03:47:31 57° SSW 03:50:49 10° SE visible
02 Aug -2.6 22:05:11 10° SSW 22:07:59 32° SSE 22:07:59 32° SSE visible
03 Aug -1.4 01:23:17 27° ENE 01:23:17 27° ENE 01:25:03 10° E visible
03 Aug -3.4 02:56:18 18° WNW 02:58:41 83° SSW 03:02:03 10° ESE visible
03 Aug -1.7 04:32:39 10° W 04:35:01 18° SW 04:37:23 10° S visible
03 Aug -2.0 21:16:53 10° SSW 21:19:29 21° SE 21:22:06 10° E visible
03 Aug -3.3 22:52:32 10° WSW 22:55:53 86° NNW 22:57:00 40° ENE visible
04 Aug -0.5 00:29:35 10° WNW 00:29:58 13° WNW 00:29:58 13° WNW visible
04 Aug -0.6 02:12:52 12° ESE 02:12:52 12° ESE 02:13:10 10° ESE visible
04 Aug -2.3 03:46:03 27° SW 03:46:19 27° SW 03:49:13 10° SSE visible
04 Aug -3.4 22:03:43 10° WSW 22:07:02 68° SSE 22:10:22 10° ENE visible
04 Aug -2.3 23:40:36 10° W 23:43:47 49° NNW 23:43:47 49° NNW visible
05 Aug -3.0 21:15:01 10° SW 21:18:12 45° SSE 21:21:26 10° ENE visible
05 Aug -2.6 22:51:37 10° W 22:54:55 56° NNW 22:56:54 21° ENE visible
06 Aug -0.9 00:28:40 10° WNW 00:29:46 19° WNW 00:29:46 19° WNW visible
06 Aug -3.0 22:02:38 10° WSW 22:05:58 69° NNW 22:09:19 10° ENE visible
06 Aug -2.1 23:39:43 10° WNW 23:42:37 44° NNW 23:42:37 44° NNW visible
07 Aug -3.3 21:13:43 10° WSW 21:17:03 89° SSE 21:20:25 10° ENE visible
07 Aug -2.3 22:50:44 10° WNW 22:53:59 46° N 22:55:23 28° NE visible
08 Aug -0.6 00:27:37 10° WNW 00:28:14 15° WNW 00:28:14 15° WNW visible
08 Aug -2.4 22:01:43 10° W 22:04:59 50° N 22:08:06 11° ENE visible
08 Aug -1.8 23:38:42 10° WNW 23:40:57 36° NW 23:40:57 36° NW visible
09 Aug -2.7 21:12:42 10° W 21:16:00 58° NNW 21:19:19 10° ENE visible
09 Aug -2.4 22:49:45 10° WNW 22:53:01 49° N 22:53:38 42° NE visible
10 Aug -2.3 22:00:46 10° WNW 22:04:00 46° N 22:06:18 17° ENE visible
10 Aug -1.3 23:37:35 10° WNW 23:39:09 25° WNW 23:39:09 25° WNW visible
